Overview Statistics Trail Chart Weather Telemetry Raw packets
 

This is the latest recevied weather packets stored in our database for station/object SV9TNF-56. If no packets are shown the sender has not sent any weather packets the latest 10 day(s).

<< 104 105 106 107 108 109 110 >>
Time Temp. Humidity Pressure Rain* Wind** Luminosity Snow
1787875306 26.11° C 63% 1019 hPa 0 mm 19.22 m/s, 312° - -
1787875006 26.11° C 64% 1019 hPa 0 mm 16.99 m/s, 318° - -
1787874706 25.56° C 64% 1019 hPa 0 mm 17.88 m/s, 324° - -
1787874406 26.11° C 67% 1019 hPa 0 mm 14.75 m/s, 316° - -
1787874106 26.11° C 65% 1019 hPa 0 mm 24.14 m/s, 322° - -
1787873806 26.11° C 66% 1019 hPa 0 mm 18.33 m/s, 335° - -
1787873505 26.11° C 60% 1019 hPa 0 mm 4.92 m/s, 300° - -
1787873205 26.11° C 62% 1019 hPa 0 mm 9.83 m/s, 300° - -
1787872905 26.11° C 61% 1019 hPa 0 mm 17.88 m/s, 294° - -
1787872605 26.11° C 64% 1019 hPa 0 mm 9.83 m/s, 321° - -
1787872306 25.56° C 66% 1019 hPa 0 mm 7.15 m/s, 335° - -
1787872005 25.56° C 68% 1019 hPa 0 mm 8.94 m/s, 316° - -
1787871705 25.56° C 70% 1019 hPa 0 mm 7.6 m/s, 312° - -
1787871405 25.56° C 69% 1019 hPa 0 mm 4.47 m/s, 336° - -
1787871105 25.56° C 68% 1019 hPa 0 mm 8.05 m/s, 279° - -
1787870805 26.11° C 66% 1019 hPa 0 mm 12.07 m/s, 312° - -
1787870504 26.11° C 65% 1019.3 hPa 0 mm 7.6 m/s, 282° - -
1787870204 25.56° C 65% 1019 hPa 0 mm 13.86 m/s, 282° - -
1787869904 26.11° C 66% 1019 hPa 0 mm 14.31 m/s, 330° - -
1787869604 26.11° C 65% 1019 hPa 0 mm 24.59 m/s, 346° - -
1787869304 26.11° C 60% 1019 hPa 0 mm 13.86 m/s, 308° - -
1787869004 26.67° C 58% 1019 hPa 0 mm 21.01 m/s, 288° - -
1787868704 26.11° C 59% 1019.3 hPa 0 mm 16.09 m/s, 24° - -
1787868404 26.11° C 60% 1019.3 hPa 0 mm 15.2 m/s, 288° - -
1787868104 25.56° C 62% 1019 hPa 0 mm 20.56 m/s, 348° - -

* Rain latest hour (hover to see other rain measurements)
** Current wind speed in m/s (hover to see current wind gust speed)